User: anonymous   Login
Location: Azul
(36.7830°S, 59.8500°W)
Time: 10:08:19
(UTC-03:00)
Language:

DELFI C3 - Orbit

View from above orbital plane
View from above orbital plane
View from above satellite
View from above satellite

Ground track
Ground track

The orbit data is extracted from the following two-line orbital elements,

1 32789U 08021G   21294.51503606  .00003268  00000-0  20658-3 0  9997
2 32789  97.3656 325.0046 0013004  72.3122 287.9526 15.09640479735843
Epoch (UTC): 21 October 2021 12:21:39
Eccentricity: 0.0013004
inclination: 97.3656°
perigee height: 528 km
apogee height: 546 km
right ascension of ascending node: 325.0046°
argument of perigee: 72.3122°
revolutions per day: 15.09640479
mean anomaly at epoch: 287.9526°
orbit number at epoch: 73584

The dashed part of the orbit path shows where the satellite is in the earth's shadow,  

DLR